Date,TemperatureHighF,TemperatureAvgF,TemperatureLowF,DewpointHighF,DewpointAvgF,DewpointLowF,HumidityHigh,HumidityAvg,HumidityLow,PressureMaxIn,PressureMinIn,WindSpeedMaxMPH,WindSpeedAvgMPH,GustSpeedMaxMPH,PrecipitationSumIn
2013-1-1,45,41,37,44,38,32,96,88,80,30.27,30.01,13,2,15,0.01
2013-1-2,40,36,29,32,30,28,93,81,70,30.34,30.25,10,2,13,0.00
2013-1-3,50,38,26,34,29,24,95,74,46,30.46,30.32,14,1,14,0.00
2013-1-4,50,44,38,35,32,31,77,65,51,30.51,30.34,6,0,6,0.00
2013-1-5,52,43,36,42,38,33,95,82,64,30.35,30.19,12,2,13,0.01
2013-1-6,58,42,31,34,31,27,95,70,33,30.38,30.27,9,1,10,0.00
2013-1-7,56,42,26,39,32,24,94,70,47,30.33,30.09,11,1,12,0.00
2013-1-8,48,47,46,48,43,36,97,85,66,30.09,29.94,10,2,12,0.97
2013-1-9,56,53,48,55,52,48,97,97,95,30.11,29.93,22,4,25,1.61
2013-1-10,61,55,48,57,51,45,98,86,66,29.98,29.87,20,6,24,0.04
2013-1-11,71,58,47,62,51,44,92,79,55,29.93,29.74,25,7,31,0.00
2013-1-12,70,55,37,68,53,34,98,93,85,29.91,29.62,19,4,24,0.69
2013-1-13,44,36,31,34,27,22,87,70,53,30.28,29.90,19,4,22,0.00
2013-1-14,45,35,28,30,25,21,76,67,49,30.35,30.21,12,3,16,0.00
2013-1-15,38,35,30,31,28,24,92,76,65,30.25,30.14,13,3,13,0.08
2013-1-16,50,36,27,29,24,19,90,63,38,30.30,30.15,12,2,13,0.02
2013-1-17,61,44,31,38,32,27,91,65,37,30.49,30.23,15,1,15,0.00
2013-1-18,62,46,30,40,35,28,95,69,42,30.50,30.25,18,3,18,0.00
2013-1-19,65,50,40,50,42,36,93,76,55,30.25,30.12,16,4,19,0.00
2013-1-20,69,50,36,52,43,34,98,79,49,30.20,30.04,11,1,12,0.00
2013-1-21,58,47,38,42,35,28,95,66,48,30.28,30.10,9,2,11,0.00
2013-1-22,64,49,36,49,39,28,86,70,57,30.30,30.16,10,2,11,0.00
2013-1-23,75,59,45,58,52,43,96,79,55,30.25,30.09,17,4,17,0.00
2013-1-24,77,62,53,63,58,52,98,86,60,30.16,29.99,16,4,16,0.00
2013-1-25,60,51,46,58,46,40,96,85,73,30.18,29.99,12,2,12,0.00
2013-1-26,52,48,45,49,46,40,97,92,78,30.20,30.08,9,1,9,0.01
2013-1-27,74,62,49,64,57,48,99,87,65,30.09,29.89,23,6,28,0.01
2013-1-28,77,72,68,68,65,64,89,80,66,29.96,29.80,27,10,27,0.00
2013-1-29,77,67,54,68,61,36,92,82,49,29.80,29.39,29,10,30,0.22
2013-1-30,55,48,37,41,31,23,79,54,34,30.12,29.64,27,7,27,0.00
2013-1-31,69,50,33,34,28,21,85,50,18,30.31,30.06,22,4,24,0.00
2013-2-1,61,45,30,38,30,20,81,58,40,30.39,30.15,13,3,16,0.00
2013-2-2,68,54,43,49,40,33,87,62,30,30.29,30.13,13,3,14,0.00
2013-2-3,69,53,36,46,35,29,92,57,25,30.29,29.96,11,2,12,0.00
2013-2-4,70,61,55,60,50,34,92,68,43,29.96,29.76,20,5,21,0.00
2013-2-5,64,59,54,61,57,52,98,94,89,29.99,29.84,8,2,9,0.01
2013-2-6,73,62,53,65,58,51,98,89,64,29.99,29.83,16,3,17,0.00
2013-2-7,81,64,56,62,55,44,95,76,32,30.05,29.75,20,7,23,0.00
2013-2-8,64,53,43,48,38,28,81,58,26,30.23,30.05,16,3,17,0.00
2013-2-9,60,51,47,59,47,40,97,87,67,30.12,29.72,19,5,20,0.02
2013-2-10,69,59,46,63,42,28,97,60,22,29.99,29.61,26,5,30,0.87
2013-2-11,55,51,47,42,37,31,78,59,43,30.13,29.97,17,3,19,0.00
2013-2-12,49,47,44,47,44,40,95,90,79,30.02,29.82,17,3,20,0.25
2013-2-13,57,46,40,42,38,36,90,76,53,30.14,30.00,17,3,20,0.25
2013-2-14,69,52,36,46,39,33,96,66,28,30.09,29.97,11,2,11,0.00
2013-2-15,52,47,35,41,30,19,80,54,30,30.36,30.07,13,4,16,0.00
2013-2-16,57,43,30,35,29,24,87,60,36,30.40,30.16,10,2,11,0.00
2013-2-17,70,54,38,47,36,30,80,53,27,30.16,29.88,27,9,28,0.00
2013-2-18,79,62,51,59,46,32,81,59,30,30.09,29.71,29,10,30,0.00
2013-2-19,61,51,38,36,30,24,80,45,26,30.31,30.08,11,2,14,0.00
2013-2-20,52,45,41,42,37,32,87,76,48,30.19,29.79,18,4,19,0.12
2013-2-21,67,53,42,52,41,31,94,67,29,29.91,29.60,18,5,22,0.06
2013-2-22,50,41,32,39,29,22,80,62,45,30.13,29.89,11,2,11,0.06
2013-2-23,56,42,31,38,30,26,83,63,39,30.08,29.91,12,1,12,0.00
2013-2-24,71,54,35,49,40,31,91,62,35,29.92,29.59,18,4,19,0.00
2013-2-25,64,52,40,53,41,32,85,66,39,29.62,29.41,27,7,29,0.01
2013-2-26,59,47,41,38,35,32,79,63,40,29.88,29.62,27,7,31,0.00
2013-2-27,58,46,37,35,29,21,87,56,27,30.20,29.86,22,4,22,0.00
2013-2-28,59,46,36,32,28,24,77,52,30,30.27,30.14,24,4,24,0.00
2013-3-1,56,44,32,34,30,26,87,60,40,30.29,30.17,14,2,15,0.00
2013-3-2,54,42,31,34,26,21,80,57,31,30.42,30.22,15,3,17,0.00
2013-3-3,70,53,36,45,34,27,84,51,29,30.22,29.78,26,8,29,0.00
2013-3-4,86,68,55,52,48,37,74,52,18,29.78,29.55,28,10,29,0.00
2013-3-5,67,51,42,46,28,19,67,43,23,30.35,29.72,25,5,27,0.00
2013-3-6,62,48,34,33,26,19,67,44,21,30.45,30.19,11,1,12,0.00
2013-3-7,70,55,38,39,33,28,79,47,24,30.23,30.07,20,4,23,0.00
2013-3-8,63,58,53,56,50,36,85,76,47,30.17,30.00,14,4,15,0.00
2013-3-10,55,50,40,54,39,31,95,66,53,30.06,29.68,26,6,30,0.30
2013-3-11,59,45,32,36,30,20,92,60,23,30.11,29.98,15,2,16,0.30
2013-3-12,67,52,37,38,32,26,82,50,25,30.28,30.02,12,1,15,0.00
2013-3-13,70,55,40,40,36,33,88,53,29,30.43,30.28,11,2,12,0.00
2013-3-14,77,62,48,51,43,33,69,50,35,30.33,30.13,20,6,23,0.00
2013-3-15,81,67,54,58,50,45,88,58,32,30.14,29.85,24,9,31,0.00
2013-3-16,81,69,58,62,56,49,88,65,48,29.85,29.65,27,12,29,0.00
2013-3-17,75,68,59,64,58,50,85,71,50,29.74,29.62,24,6,27,0.00
2013-3-18,71,62,54,64,50,38,94,65,44,29.98,29.60,19,4,22,0.00
2013-3-19,68,58,46,45,40,34,79,52,37,30.10,29.94,13,3,18,0.00
2013-3-20,68,57,46,38,35,25,70,45,22,30.28,30.00,13,2,16,0.00
2013-3-21,69,60,51,58,44,32,76,56,43,30.01,29.55,29,7,29,0.00
2013-3-22,66,54,47,62,50,44,95,87,71,29.83,29.54,15,3,17,0.00
2013-3-23,55,50,47,50,48,46,96,91,84,29.84,29.64,20,2,25,0.10
2013-3-24,54,46,40,49,32,23,94,59,36,30.16,29.77,26,7,26,0.01
2013-3-25,56,43,31,27,22,17,77,46,24,30.39,30.16,21,3,22,0.00
2013-3-26,58,44,30,36,26,20,84,51,28,30.50,30.29,10,1,10,0.00
2013-3-27,70,55,39,45,36,26,65,49,32,30.31,30.06,22,7,24,0.00
2013-3-28,70,62,51,58,52,43,84,72,61,30.20,30.05,18,7,21,0.00
2013-3-29,77,68,61,62,59,56,85,74,58,30.16,29.98,19,7,20,0.00
2013-3-30,77,67,56,67,61,55,97,83,66,30.05,29.85,19,4,21,0.90
2013-3-31,75,66,58,64,59,52,95,77,53,29.94,29.75,19,3,22,0.42
2013-4-1,79,65,49,57,52,48,96,67,36,30.04,29.90,10,1,11,0.00
2013-4-2,72,66,52,65,58,43,89,78,66,29.99,29.86,20,5,26,0.01
2013-4-3,54,49,46,48,46,44,95,89,75,30.13,29.92,14,2,21,0.66
2013-4-4,52,47,43,44,42,41,95,85,71,30.18,30.09,13,2,15,0.03
2013-4-5,70,55,40,53,46,38,95,73,44,30.23,30.01,10,2,13,0.00
2013-4-6,75,64,54,61,54,48,86,71,53,30.01,29.80,29,9,30,0.00
2013-4-7,73,67,60,64,60,56,89,80,70,29.88,29.71,24,8,26,0.00
2013-4-8,76,71,65,67,63,59,84,77,72,29.73,29.62,25,10,28,0.00
2013-4-9,85,74,68,69,66,62,91,76,53,29.68,29.58,27,8,28,0.00
2013-4-10,73,49,41,69,45,36,94,88,69,29.96,29.65,20,5,24,0.30
2013-4-11,63,49,40,44,36,30,90,63,39,29.96,29.79,15,1,15,0.30
2013-4-12,78,59,42,54,46,40,94,66,33,29.98,29.83,11,1,12,0.00
2013-4-13,79,66,51,57,51,46,87,60,37,29.98,29.74,19,4,22,0.00
2013-4-14,81,69,57,67,60,50,85,72,59,29.75,29.51,22,7,23,0.00
2013-4-15,87,77,68,72,68,65,93,75,56,29.71,29.57,24,9,24,0.00
2013-4-16,87,78,71,72,68,66,86,73,56,29.85,29.71,20,8,26,0.00
2013-4-17,85,78,74,72,70,68,91,79,62,29.83,29.57,27,10,30,0.00
2013-4-18,76,56,45,72,48,35,94,76,53,30.12,29.51,37,8,41,1.15
2013-4-19,64,50,39,45,34,27,85,57,27,30.26,30.11,24,2,24,1.15
2013-4-20,72,59,45,47,40,35,77,52,30,30.19,29.99,21,5,21,0.00
2013-4-21,72,61,49,55,49,42,84,66,49,30.19,30.04,16,3,16,0.00
2013-4-22,78,67,54,63,56,48,80,68,57,30.08,29.81,20,6,23,0.00
2013-4-23,67,56,43,63,51,39,92,85,74,30.15,29.77,24,7,24,0.01
2013-4-24,62,50,40,42,38,34,91,65,41,30.29,30.15,18,3,19,0.07
2013-4-25,75,62,49,50,44,37,73,53,35,30.32,30.12,12,2,14,0.00
2013-4-26,78,68,60,69,58,47,84,72,56,30.14,29.93,21,4,23,0.00
2013-4-27,74,69,61,66,61,56,91,77,57,30.07,29.94,16,4,17,0.00
2013-4-28,82,67,52,70,60,50,96,81,63,30.01,29.82,11,1,12,0.00
2013-4-29,86,74,60,68,64,58,95,73,49,29.87,29.74,19,4,19,0.00
2013-4-30,83,72,60,69,63,58,93,76,53,29.80,29.70,15,4,15,0.00
2013-5-1,86,74,65,72,65,62,92,76,49,29.92,29.74,17,3,17,0.00
2013-5-2,68,53,44,63,48,37,91,81,72,30.30,29.89,22,5,25,0.02
2013-5-3,67,53,40,42,34,27,82,54,25,30.27,29.99,20,4,22,0.00
2013-5-4,73,58,42,44,38,24,92,54,19,30.00,29.86,21,3,25,0.00
2013-5-5,68,57,46,50,44,39,83,64,47,30.12,29.99,14,2,17,0.00
2013-5-6,78,64,48,59,52,46,92,68,41,30.09,29.95,9,1,11,0.00
2013-5-7,84,71,55,63,56,52,93,62,35,30.04,29.89,11,2,13,0.00
2013-5-8,86,74,64,64,59,55,78,61,43,29.96,29.81,22,6,26,0.00
2013-5-9,73,69,67,68,65,59,97,87,65,29.93,29.81,17,4,19,0.33
2013-5-10,82,72,65,70,65,60,98,81,59,30.00,29.83,10,1,12,0.00
2013-5-11,80,70,60,60,54,48,88,60,34,30.13,29.97,19,1,20,0.00
2013-5-12,79,67,56,55,45,36,72,48,26,30.23,30.10,13,1,18,0.00
2013-5-13,87,72,56,59,51,45,76,51,30,30.20,30.06,19,4,19,0.00
2013-5-14,87,75,62,67,59,50,86,59,35,30.11,29.93,22,6,23,0.00
2013-5-15,79,71,63,70,67,62,96,87,72,30.00,29.72,22,9,25,2.31
2013-5-16,82,71,63,74,67,62,97,89,75,29.80,29.70,18,5,22,0.02
2013-5-17,91,80,72,78,74,70,97,81,61,29.81,29.73,17,4,19,0.00
2013-5-18,92,82,72,77,72,68,89,75,56,29.85,29.70,21,8,23,0.00
2013-5-19,91,81,71,75,71,66,87,72,56,29.78,29.61,29,11,29,0.00
2013-5-20,90,81,75,75,72,69,85,73,59,29.77,29.59,26,10,27,0.00
2013-5-21,85,73,63,75,68,61,96,85,71,29.82,29.61,24,6,32,1.75
2013-5-22,85,71,56,68,62,55,98,76,43,29.91,29.79,9,1,9,0.00
2013-5-23,88,78,70,76,72,65,96,80,63,30.02,29.83,16,3,16,0.00
2013-5-24,87,79,69,77,72,65,95,81,65,30.15,29.95,12,2,14,0.24
2013-5-25,85,73,67,75,70,64,96,89,67,30.12,29.99,22,3,22,0.40
2013-5-26,87,78,70,76,72,69,97,82,62,30.04,29.88,20,7,21,0.11
2013-5-27,87,79,73,75,71,69,89,76,61,29.94,29.74,21,8,22,0.00
2013-5-28,87,79,72,72,69,67,89,73,55,29.84,29.72,25,9,25,0.00
2013-5-29,85,77,70,75,71,67,94,83,71,29.78,29.66,33,9,33,0.30
2013-5-30,89,80,74,79,74,70,90,80,65,29.75,29.64,25,10,27,0.02
2013-5-31,91,83,77,78,74,72,87,76,60,29.78,29.61,25,10,27,0.00
2013-6-1,88,80,76,78,73,69,92,80,69,29.90,29.66,25,6,28,0.02
2013-6-2,84,75,66,69,60,52,84,60,35,30.02,29.89,16,2,18,0.02
2013-6-3,89,76,62,68,63,58,91,67,41,29.96,29.79,11,2,11,0.00
2013-6-4,92,81,71,75,69,65,82,69,49,29.97,29.73,21,5,24,0.00
2013-6-5,91,82,73,76,71,69,88,71,53,29.89,29.68,19,3,24,0.00
2013-6-6,81,74,68,73,69,66,96,84,70,29.90,29.74,15,1,19,0.92
2013-6-7,84,73,62,66,61,55,94,69,39,29.97,29.84,11,1,14,0.00
2013-6-8,89,76,62,69,64,60,96,68,47,29.90,29.74,16,3,16,0.00
2013-6-9,88,78,68,74,70,65,96,76,55,29.90,29.80,15,2,18,0.82
2013-6-10,98,84,70,76,70,66,95,68,39,29.91,29.84,15,3,17,0.00
2013-6-11,94,85,75,78,73,69,90,70,53,29.97,29.86,16,6,18,0.00
2013-6-12,94,85,76,78,74,71,91,71,51,30.00,29.86,18,5,19,0.00
2013-6-13,98,87,76,78,73,70,85,65,42,30.00,29.83,10,2,12,0.00
2013-6-14,96,87,76,78,73,71,87,66,49,29.93,29.82,9,1,11,0.00
2013-6-15,91,82,72,79,74,69,95,78,65,29.95,29.82,29,2,31,0.42
2013-6-16,96,85,76,79,74,70,92,71,47,29.96,29.81,17,3,17,0.00
2013-6-17,91,82,70,79,74,67,96,79,63,29.99,29.80,22,2,29,0.47
2013-6-18,84,78,73,76,71,69,89,82,69,29.95,29.83,13,1,15,0.01
2013-6-19,92,82,72,78,74,70,96,78,58,29.94,29.81,11,2,13,0.00
2013-6-20,96,86,77,76,73,70,88,68,45,29.99,29.87,18,6,19,0.00
2013-6-21,96,86,76,76,73,69,86,66,43,30.01,29.90,20,6,20,0.00
2013-6-22,96,86,76,77,72,70,86,66,45,29.99,29.82,19,6,20,0.00
2013-6-23,96,86,76,76,72,68,86,65,43,29.94,29.82,21,7,21,0.00
2013-6-24,96,86,77,76,72,69,85,64,44,29.98,29.83,19,7,21,0.00
2013-6-25,98,88,78,75,72,67,84,62,41,29.94,29.76,23,8,24,0.00
2013-6-26,98,88,77,78,72,67,84,61,45,29.91,29.78,21,7,21,0.00
2013-6-27,99,88,78,79,73,69,80,62,40,29.95,29.79,13,3,16,0.00
2013-6-28,103,89,78,75,70,65,78,56,34,29.88,29.75,14,1,14,0.00
2013-6-29,97,86,75,72,66,59,83,53,30,29.84,29.73,17,1,17,0.00
2013-6-30,91,82,73,70,62,55,83,53,32,29.88,29.75,19,1,19,0.00
2013-7-1,88,78,68,63,60,58,75,56,38,29.97,29.88,13,1,16,0.00
2013-7-2,89,78,67,61,56,50,74,49,28,30.03,29.94,12,1,14,0.00
2013-7-3,92,78,64,66,58,50,89,56,26,30.01,29.89,9,1,10,0.00
2013-7-4,96,83,73,70,64,56,74,54,29,29.96,29.84,14,3,18,0.00
2013-7-5,97,84,72,72,65,61,80,55,33,29.95,29.80,13,2,14,0.00
2013-7-6,97,85,73,74,66,62,82,56,34,29.90,29.80,12,4,19,0.00
2013-7-7,98,87,76,75,70,65,81,59,37,29.95,29.85,13,3,15,0.00
2013-7-8,97,86,77,76,73,70,85,66,45,30.03,29.92,16,5,18,0.00
2013-7-9,100,89,78,74,69,63,83,55,31,30.06,29.91,15,4,17,0.00
2013-7-10,102,91,82,75,71,66,75,53,33,29.99,29.83,12,3,15,0.00
2013-7-11,104,88,81,78,72,68,78,61,37,29.91,29.81,21,3,22,0.00
2013-7-12,102,88,76,76,73,68,89,64,37,29.92,29.81,10,2,11,0.00
2013-7-13,100,88,78,73,69,62,80,54,35,29.94,29.81,13,2,14,0.00
2013-7-14,80,74,70,71,68,61,95,83,54,29.97,29.83,9,1,12,0.26
2013-7-15,77,72,68,72,70,67,97,92,83,30.05,29.91,10,1,10,0.27
2013-7-16,91,78,72,77,73,70,95,84,54,30.18,30.03,16,2,21,0.27
2013-7-17,91,80,72,79,73,70,98,81,56,30.18,30.08,14,2,21,0.16
2013-7-18,96,84,72,77,73,70,94,71,44,30.13,29.94,12,1,14,0.16
2013-7-19,93,81,76,77,74,71,94,81,53,29.99,29.87,11,1,13,0.17
2013-7-20,96,82,73,79,73,68,95,77,42,29.93,29.79,15,2,15,0.00
2013-7-21,97,85,74,80,74,71,94,72,47,29.87,29.78,22,5,22,0.00
2013-7-22,98,87,78,80,75,71,90,68,46,29.92,29.79,18,6,18,0.00
2013-7-23,99,89,79,81,74,66,86,64,43,29.91,29.74,18,5,21,0.00
2013-7-24,96,85,76,77,72,68,84,66,45,30.00,29.79,19,3,19,0.00
2013-7-25,97,85,74,78,73,70,91,69,47,30.00,29.91,11,1,11,0.00
2013-7-26,96,84,77,80,74,72,95,73,50,29.96,29.78,17,3,17,0.14
2013-7-27,91,80,72,73,69,65,89,70,45,29.96,29.85,11,2,13,0.00
2013-7-28,94,82,70,74,70,67,92,69,47,29.94,29.81,13,2,13,0.00
2013-7-29,96,86,78,79,73,65,88,67,41,29.94,29.85,17,6,19,0.00
2013-7-30,99,88,79,77,71,63,82,59,44,30.03,29.88,19,6,20,0.00
2013-7-31,103,90,79,78,72,68,78,58,38,30.00,29.84,18,3,18,0.00
2013-8-1,103,90,80,76,74,70,87,60,37,29.94,29.81,12,1,12,0.00
2013-8-2,105,92,80,75,72,67,78,55,34,29.88,29.79,17,4,17,0.00
2013-8-3,102,90,79,75,72,68,80,57,35,29.95,29.85,12,4,16,0.00
2013-8-4,101,90,80,77,72,67,81,59,36,30.01,29.85,12,3,14,0.00
2013-8-5,104,92,81,74,70,65,74,52,32,29.94,29.77,16,4,19,0.00
2013-8-6,105,92,80,75,70,64,76,51,32,29.85,29.72,16,5,19,0.00
2013-8-7,106,92,80,76,71,66,78,52,32,29.83,29.69,18,6,18,0.00
2013-8-8,104,91,80,75,71,67,82,54,35,29.82,29.70,14,4,16,0.00
2013-8-9,105,91,80,75,68,58,73,51,25,29.89,29.75,14,3,14,0.00
2013-8-10,100,87,76,79,73,69,92,65,41,29.99,29.88,10,1,10,0.00
2013-8-11,102,88,78,78,72,66,84,62,33,30.01,29.88,15,2,23,0.00
2013-8-12,101,89,78,76,72,68,83,59,38,29.99,29.85,13,3,15,0.00
2013-8-13,102,85,76,77,72,69,94,67,39,29.94,29.81,19,2,21,0.20
2013-8-14,90,82,76,77,74,69,95,78,61,29.97,29.88,16,2,16,0.01
2013-8-15,91,80,71,70,66,62,82,64,46,30.02,29.90,12,2,12,0.00
2013-8-16,90,79,68,70,65,61,94,66,42,30.03,29.90,13,2,14,0.05
2013-8-17,91,78,64,66,61,59,90,60,36,30.05,29.92,14,1,14,0.00
2013-8-18,94,80,67,69,64,60,85,62,35,30.05,29.93,9,1,11,0.00
2013-8-19,97,84,74,70,65,60,78,55,33,30.02,29.87,13,2,13,0.00
2013-8-20,98,85,74,70,64,57,73,51,27,29.99,29.88,12,2,12,0.00
2013-8-21,97,85,74,72,68,63,80,57,37,30.04,29.92,12,2,13,0.00
2013-8-22,102,88,76,74,71,68,82,58,37,30.03,29.86,12,2,12,0.00
2013-8-23,102,89,79,76,71,67,81,58,35,29.97,29.83,18,2,18,0.00
2013-8-24,102,89,78,76,71,66,83,57,34,30.00,29.89,13,2,13,0.00
2013-8-25,99,88,77,75,70,67,79,57,36,30.09,29.98,13,2,14,0.00
2013-8-26,98,87,77,73,69,63,83,59,34,30.12,29.98,17,4,19,0.00
2013-8-27,98,84,76,74,71,66,87,67,36,30.08,29.95,18,4,21,0.00
2013-8-28,101,86,73,74,70,66,88,62,34,30.05,29.92,12,1,12,0.00
2013-8-29,102,88,75,72,69,63,86,57,30,30.02,29.88,9,1,10,0.00
2013-8-30,104,90,76,72,68,64,76,51,29,29.95,29.80,10,1,10,0.00
2013-8-31,105,91,78,76,69,59,80,52,24,29.85,29.71,11,2,11,0.00
2013-9-1,104,91,80,75,70,65,72,51,31,29.82,29.69,12,3,14,0.00
2013-9-2,94,85,78,76,73,70,89,69,48,29.95,29.78,13,1,15,0.02
2013-9-3,100,87,75,74,68,61,74,55,32,29.94,29.81,9,1,10,0.00
2013-9-4,102,88,75,75,69,64,84,56,31,29.99,29.87,18,2,20,0.00
2013-9-5,102,89,78,76,68,62,78,53,30,30.05,29.92,12,1,12,0.00
2013-9-6,102,88,75,74,67,63,76,53,30,30.03,29.88,14,1,14,0.00
2013-9-7,101,88,77,75,69,63,82,57,31,29.98,29.84,16,3,17,0.00
2013-9-8,98,85,73,74,68,62,87,60,32,29.93,29.81,12,2,13,0.00
2013-9-9,96,85,72,72,68,64,88,60,40,29.95,29.85,15,3,18,0.00
2013-9-10,96,84,76,75,68,58,87,61,30,30.05,29.93,19,3,19,0.00
2013-9-11,99,84,72,74,69,65,84,63,40,30.07,29.94,13,2,15,0.00
2013-9-12,98,86,74,73,70,66,86,61,38,30.02,29.86,8,1,9,0.00
2013-9-13,98,86,76,74,70,64,85,62,40,29.92,29.77,12,2,16,0.02
2013-9-14,94,83,74,70,65,60,71,55,39,29.93,29.82,13,2,14,0.00
2013-9-15,95,84,74,73,66,60,67,55,43,29.98,29.89,11,2,11,0.00
2013-9-16,98,86,75,74,68,64,79,57,36,30.04,29.90,11,2,12,0.00
2013-9-17,94,86,78,72,69,66,74,56,43,30.02,29.88,11,1,11,0.00
2013-9-18,98,87,78,73,68,64,72,56,35,29.96,29.81,15,3,17,0.00
2013-9-19,91,82,72,75,72,67,95,72,55,29.94,29.81,18,2,18,0.26
2013-9-20,75,73,70,73,71,65,97,93,83,29.89,29.79,15,2,18,2.04
2013-9-21,84,72,61,65,55,47,85,60,29,29.94,29.81,15,1,16,0.00
2013-9-22,84,70,57,60,56,50,92,64,33,29.91,29.75,10,1,15,0.00
2013-9-23,86,73,61,64,58,54,84,61,36,29.83,29.70,14,2,14,0.00
2013-9-24,94,78,64,69,59,48,94,59,23,29.88,29.78,13,1,13,0.00
2013-9-25,94,76,59,61,56,51,89,56,25,29.86,29.72,6,0,9,0.00
2013-9-26,96,80,66,66,60,56,79,52,30,29.84,29.74,14,3,14,0.00
2013-9-27,89,79,67,74,68,62,88,70,59,29.90,29.79,15,4,17,0.00
2013-9-28,88,76,66,78,71,65,96,86,69,29.99,29.83,17,4,17,1.51
2013-9-29,83,71,64,65,59,51,95,69,36,30.01,29.86,10,1,11,0.00
2013-9-30,87,73,60,68,61,54,93,69,35,29.88,29.76,10,1,13,0.00
2013-10-1,90,79,69,74,70,66,96,77,46,29.91,29.79,13,3,14,0.00
2013-10-2,87,79,74,75,72,70,92,79,59,29.94,29.81,18,5,18,0.00
2013-10-3,91,81,74,77,72,69,92,77,52,29.89,29.76,17,6,22,0.00
2013-10-4,90,81,75,75,72,69,92,75,53,29.87,29.78,19,6,20,0.00
2013-10-5,78,65,52,73,60,46,94,83,63,30.06,29.81,17,4,19,0.26
2013-10-6,74,60,50,52,46,34,95,65,23,30.09,29.99,16,2,19,0.26
2013-10-7,81,62,47,53,46,38,93,63,23,30.12,30.02,9,0,13,0.00
2013-10-8,80,65,50,57,52,47,94,67,36,30.09,29.96,9,1,10,0.00
2013-10-9,83,70,58,62,57,53,89,64,41,30.04,29.94,13,3,15,0.00
2013-10-10,83,72,61,65,61,57,91,69,46,30.03,29.84,15,3,15,0.00
2013-10-11,86,76,68,73,68,63,92,78,64,29.91,29.77,18,6,20,0.00
2013-10-12,91,78,71,79,72,68,93,84,59,30.02,29.83,17,3,17,0.14
2013-10-13,76,72,68,71,68,67,96,89,80,30.16,30.00,10,1,12,0.02
2013-10-14,73,71,69,72,70,67,97,96,90,30.09,29.88,15,4,16,0.85
2013-10-15,80,68,54,75,66,52,96,93,80,30.03,29.86,17,3,18,0.85
2013-10-16,65,57,53,55,52,50,97,85,62,30.07,29.96,10,1,11,0.29
2013-10-17,72,59,47,54,49,44,92,73,44,30.11,29.95,7,0,11,0.00
2013-10-18,71,61,52,58,54,49,95,79,58,30.06,29.86,14,2,19,0.01
2013-10-19,65,53,42,49,43,38,88,71,41,30.19,30.05,16,2,19,0.00
2013-10-20,72,57,42,50,46,41,95,70,38,30.06,29.85,17,4,20,0.00
2013-10-21,74,61,54,64,54,48,90,80,67,30.07,29.88,18,2,18,0.00
2013-10-22,76,58,43,54,46,40,94,68,33,30.14,29.99,10,1,10,0.00
2013-10-23,82,63,48,57,51,45,95,68,32,30.10,29.99,9,1,9,0.00
2013-10-24,79,65,52,59,51,45,89,63,44,30.25,30.02,10,1,11,0.00
2013-10-25,68,59,50,50,46,42,84,64,48,30.38,30.22,13,2,13,0.00
2013-10-26,77,63,56,65,56,48,95,79,67,30.22,29.98,17,4,17,1.45
2013-10-27,70,63,60,62,59,58,96,87,71,30.09,29.97,6,0,12,0.01
2013-10-28,76,66,54,68,62,52,97,88,76,30.08,29.96,11,2,13,0.00
2013-10-29,75,72,69,71,69,66,94,89,85,30.04,29.95,18,6,18,0.00
2013-10-30,72,69,66,69,67,64,96,93,88,29.98,29.76,22,6,24,0.10
2013-10-31,76,68,54,69,57,44,98,72,34,29.84,29.63,23,4,29,0.01
2013-11-1,76,61,48,54,50,44,96,70,44,30.05,29.79,13,1,14,0.00
2013-11-2,68,58,48,46,42,36,86,58,32,30.26,30.05,13,1,15,0.00
2013-11-3,66,54,40,48,44,38,94,70,43,30.19,29.97,17,4,19,0.00
2013-11-4,60,58,54,59,54,48,96,87,67,30.08,29.97,18,4,18,0.76
2013-11-5,69,65,60,68,64,59,97,96,95,30.03,29.90,14,4,16,0.31
2013-11-6,70,56,44,68,51,40,97,84,63,30.34,29.92,22,3,24,0.31
2013-11-7,64,50,38,48,41,36,96,76,42,30.49,30.33,6,0,8,0.00
2013-11-8,68,54,42,50,44,40,96,72,42,30.36,30.11,16,3,16,0.00
2013-11-9,68,60,55,54,50,47,80,71,60,30.20,30.09,13,4,15,0.00
2013-11-10,67,58,50,51,49,46,90,73,50,30.31,30.19,7,0,8,0.00
2013-11-11,73,58,45,56,50,43,97,79,50,30.26,30.13,9,0,10,0.00
2013-11-12,60,48,36,57,35,20,93,61,32,30.67,30.25,15,2,20,0.00
2013-11-13,53,40,30,34,28,23,87,64,37,30.68,30.36,8,0,9,0.00
2013-11-14,59,47,33,47,35,29,87,66,34,30.36,30.00,15,4,16,0.00
2013-11-15,70,60,53,59,54,47,89,79,65,30.00,29.81,17,4,17,0.00
2013-11-16,75,69,61,70,65,58,95,88,76,29.83,29.64,22,8,26,0.00
2013-11-17,86,75,64,70,60,41,91,62,32,29.97,29.65,21,4,26,0.00
2013-11-18,70,62,54,41,36,31,50,38,25,30.14,29.97,12,2,14,0.00
2013-11-19,68,60,55,42,38,33,55,44,28,30.15,29.99,14,3,14,0.00
2013-11-20,64,57,48,53,43,35,77,60,49,30.01,29.87,15,5,16,0.01
2013-11-21,71,64,45,69,61,42,96,91,77,30.18,29.92,18,4,19,0.10
2013-11-22,45,38,35,42,36,33,95,92,89,30.43,30.16,23,3,23,0.20
2013-11-23,43,39,36,39,35,28,95,87,67,30.53,30.41,12,1,12,0.03
2013-11-24,37,35,32,29,27,23,79,73,63,30.59,30.35,15,1,17,0.01
2013-11-25,38,36,33,36,34,28,95,91,72,30.35,30.14,8,1,8,0.75
2013-11-26,52,42,36,37,33,24,94,72,47,30.36,30.11,18,3,18,0.01
2013-11-27,47,36,29,27,23,18,85,60,34,30.46,30.33,12,1,12,0.00
2013-11-28,53,38,27,32,28,24,91,71,37,30.45,30.35,10,1,10,0.00
2013-11-29,57,42,27,42,34,24,95,75,47,30.52,30.34,12,1,12,0.00
2013-11-30,66,52,38,53,44,34,91,76,56,30.34,30.12,18,4,18,0.00
2013-12-1,70,59,50,60,54,48,96,85,69,30.15,29.86,15,3,20,0.00
2013-12-2,69,54,42,55,48,40,97,81,54,29.86,29.63,10,1,11,0.00
2013-12-3,74,55,41,52,44,39,97,72,30,29.65,29.49,9,1,9,0.00
2013-12-4,78,62,49,62,51,37,89,70,45,29.85,29.55,15,2,16,0.00
2013-12-5,49,35,30,38,28,23,93,75,60,30.17,29.84,16,2,17,0.00
2013-12-6,33,28,24,31,26,20,94,90,86,30.51,30.09,5,0,7,0.00
2013-12-7,26,24,21,24,21,17,93,89,85,30.54,30.28,0,0,0,0.00
2013-12-8,34,31,26,32,29,24,95,94,93,30.28,30.04,1,0,1,0.13
2013-12-9,33,32,28,32,29,23,95,90,81,30.41,30.15,0,0,0,0.16
2013-12-10,39,29,20,29,23,16,90,81,65,30.53,30.35,5,0,6,0.42
2013-12-11,44,33,24,35,28,22,94,83,64,30.59,30.32,8,0,9,0.42
2013-12-12,49,38,26,37,30,23,92,76,55,30.61,30.29,7,0,8,0.21
2013-12-13,46,43,40,45,39,34,96,88,74,30.29,29.78,13,4,16,0.07
2013-12-14,47,42,33,46,38,28,97,85,69,30.31,29.76,23,3,25,0.01
2013-12-15,61,43,28,37,32,25,95,69,37,30.35,30.21,7,1,8,0.00
2013-12-16,66,50,36,41,37,32,88,65,35,30.23,30.12,12,3,12,0.00
2013-12-17,70,50,34,44,38,31,92,66,34,30.27,30.17,10,0,10,0.00
2013-12-18,70,52,34,48,41,31,96,69,37,30.24,29.98,23,4,23,0.00
2013-12-19,71,62,52,64,56,48,94,82,69,29.98,29.71,25,8,26,0.00
2013-12-20,70,58,37,65,54,35,94,87,70,29.82,29.72,20,4,22,0.00
2013-12-21,54,44,36,53,43,34,98,96,94,29.75,29.49,11,1,15,1.71
2013-12-22,47,38,31,46,32,26,97,81,62,30.38,29.75,15,3,18,0.01
2013-12-23,46,34,25,33,28,22,93,77,50,30.56,30.37,7,0,9,0.00
2013-12-24,51,38,25,38,31,23,93,76,54,30.55,30.26,15,3,18,0.00
2013-12-25,60,44,36,45,36,31,85,73,54,30.40,30.26,12,2,15,0.00
2013-12-26,54,40,31,40,34,29,95,79,56,30.44,30.32,6,0,7,0.00
2013-12-27,58,44,31,43,36,29,95,77,50,30.45,30.31,8,0,8,0.01
2013-12-28,61,48,33,45,39,31,95,73,49,30.31,29.95,12,2,13,0.00
2013-12-29,52,40,32,44,34,25,89,76,69,30.27,29.92,18,2,18,0.00
2013-12-30,44,35,30,26,23,19,81,62,44,30.41,30.24,12,2,15,0.00
2013-12-31,53,39,26,32,27,22,90,64,38,30.44,30.19,15,2,15,0.00
2014-1-1,67,48,34,51,38,27,87,69,47,30.20,29.85,26,7,27,0.00
2014-1-2,44,33,25,27,21,17,79,62,40,30.46,30.17,24,4,24,0.00